Kokomo, IN

11:27 PM EST on December 04, 2016 (GMT -0500)
Kokomo Municipal

Weather History for KOKK - January, 2014

Change the Weather History Date:

Sunday, January 26, 2014

  Actual Average (KGUS) Record (KGUS)
Temperature  
Mean Temperature 21 °F -  
Max Temperature 39 °F 30 °F 53 °F (2002)
Min Temperature 3 °F 17 °F -4 °F (2003)
Degree Days  
Heating Degree Days 44    
Moisture  
Dew Point 16 °F    
Average Humidity 76    
Maximum Humidity 92    
Minimum Humidity 44    
Precipitation  
Precipitation 0.01 in - - ()
Sea Level Pressure  
Sea Level Pressure 29.58 in    
Wind  
Wind Speed 14 mph (SW)    
Max Wind Speed 40 mph    
Max Gust Speed 51 mph    
Visibility 8 miles    
Events      
Averages and records for this station are not official NWS values.
T = Trace of Precipitation, MM = Missing Value Source: NWS Daily Summary

Daily Weather History Graph

Daily Weather History Graph

Search for Another Location

Airport or City:

Trip Planner

Search our weather history database for the weather conditions in past years. The results will help you decide how hot, cold, wet, or windy it might be!

Date:

Astronomy

Jan. 26, 2014 Rise Set
Actual Time 6:59 AM CST 4:55 PM CST
Civil Twilight 6:29 AM CST 5:24 PM CST
Nautical Twilight 5:56 AM CST 5:57 PM CST
Astronomical Twilight 5:24 AM CST 6:29 PM CST
Moon 2:35 AM CST (1/26) 12:43 PM CST (1/26)
Length of Visible Light 10h 54m
Length of Day
9h 56m
Waning Crescent, 23% of the Moon is Illuminated
Jan 26
Waning Crescent
Jan 30
New
Feb 6
First Quarter
Feb 14
Full
Feb 22
Last Quarter

Hourly Weather History & Observations

Time (CST) Temp. Windchill Dew Point Humidity Pressure Visibility Wind Dir Wind Speed Gust Speed Precip Events Conditions
12:15 AM 3.2 °F -12.2 °F -2.2 °F 78% 29.85 in 10.0 mi WSW 10.4 mph - N/A   Clear
12:35 AM 3.2 °F -9.1 °F -2.2 °F 78% 29.84 in 10.0 mi WSW 6.9 mph - N/A   Clear
12:55 AM 3.2 °F -9.1 °F -2.2 °F 78% 29.83 in 10.0 mi SW 6.9 mph - N/A   Clear
1:15 AM 3.2 °F -11.3 °F -4.0 °F 72% 29.82 in 10.0 mi SW 9.2 mph - N/A   Clear
1:35 AM 5.0 °F -6.9 °F -2.2 °F 72% 29.81 in 10.0 mi SW 6.9 mph - N/A   Clear
1:55 AM 5.0 °F -8.1 °F -2.2 °F 72% 29.80 in 10.0 mi SSW 8.1 mph - N/A   Clear
2:15 AM 3.2 °F -12.2 °F -2.2 °F 78% 29.79 in 10.0 mi SSW 10.4 mph - N/A   Clear
2:35 AM 5.0 °F -10.0 °F -2.2 °F 72% 29.78 in 10.0 mi SSW 10.4 mph - N/A   Clear
2:55 AM 5.0 °F -8.1 °F -2.2 °F 72% 29.75 in 10.0 mi South 8.1 mph - N/A   Clear
3:15 AM 6.8 °F -6.9 °F -0.4 °F 72% 29.73 in 10.0 mi South 9.2 mph - N/A   Clear
3:35 AM 8.6 °F -3.7 °F -0.4 °F 67% 29.72 in 10.0 mi South 8.1 mph - N/A   Mostly Cloudy
3:55 AM 8.6 °F -5.5 °F -0.4 °F 67% 29.71 in 10.0 mi SSW 10.4 mph - N/A   Overcast
4:15 AM 8.6 °F -7.7 °F 1.4 °F 73% 29.69 in 10.0 mi South 13.8 mph - N/A   Overcast
4:35 AM 8.6 °F -7.0 °F 1.4 °F 73% 29.69 in 1.2 mi South 12.7 mph - N/A   Overcast
4:55 AM 8.6 °F -5.5 °F 5.0 °F 85% 29.67 in 1.5 mi South 10.4 mph - N/A   Overcast
5:15 AM 8.6 °F -3.7 °F 5.0 °F 85% 29.68 in 1.2 mi South 8.1 mph - N/A   Overcast
5:35 AM 8.6 °F -6.3 °F 5.0 °F 85% 29.65 in 2.5 mi SSE 11.5 mph - N/A   Overcast
5:55 AM 8.6 °F -7.7 °F 6.8 °F 92% 29.62 in 2.0 mi SSE 13.8 mph - 0.01 in   Overcast
6:15 AM 10.4 °F -6.6 °F 6.8 °F 85% 29.60 in 2.0 mi SSE 16.1 mph - N/A   Overcast
6:35 AM 10.4 °F -7.2 °F 6.8 °F 85% 29.60 in 4.0 mi South 17.3 mph - N/A   Overcast
6:55 AM 10.4 °F -6.6 °F 6.8 °F 85% 29.59 in 2.5 mi SSE 16.1 mph - N/A   Overcast
7:15 AM 10.4 °F -6.6 °F 6.8 °F 85% 29.59 in 7.0 mi South 16.1 mph - N/A   Overcast
7:35 AM 12.2 °F -4.3 °F 6.8 °F 79% 29.58 in 2.5 mi South 16.1 mph 21.9 mph N/A   Overcast
7:55 AM 12.2 °F -3.1 °F 6.8 °F 79% 29.58 in 1.5 mi SSE 13.8 mph - N/A   Overcast
8:15 AM 12.2 °F -4.3 °F 8.6 °F 85% 29.56 in 9.0 mi South 16.1 mph 21.9 mph N/A   Overcast
8:35 AM 12.2 °F -3.7 °F 8.6 °F 85% 29.56 in 10.0 mi South 15.0 mph - N/A   Overcast
8:55 AM 14.0 °F -1.4 °F 8.6 °F 79% 29.55 in 10.0 mi South 15.0 mph - N/A   Overcast
9:15 AM 15.8 °F 0.3 °F 8.6 °F 73% 29.53 in 9.0 mi South 16.1 mph - N/A   Overcast
9:35 AM 15.8 °F -0.2 °F 10.4 °F 79% 29.51 in 10.0 mi South 17.3 mph - N/A   Overcast
9:55 AM 17.6 °F 2.7 °F 10.4 °F 73% 29.50 in 10.0 mi South 16.1 mph 21.9 mph N/A   Overcast
10:15 AM 19.4 °F 5.5 °F 12.2 °F 74% 29.48 in 10.0 mi SSW 15.0 mph - N/A   Overcast
10:35 AM 23.0 °F 8.3 °F 14.0 °F 68% 29.47 in 10.0 mi SSW 19.6 mph 26.5 mph N/A   Overcast
10:55 AM 24.8 °F 11.5 °F 15.8 °F 69% 29.47 in 10.0 mi SSW 17.3 mph - N/A   Overcast
11:15 AM 28.4 °F 14.4 °F 21.2 °F 74% 29.47 in 5.0 mi SW 23.0 mph 33.4 mph N/A   Overcast
11:35 AM 30.2 °F 16.8 °F 10.4 °F 44% 29.47 in 4.0 mi WSW 23.0 mph - N/A   Overcast
11:55 AM 30.2 °F 16.2 °F 23.0 °F 75% 29.47 in 8.0 mi WSW 25.3 mph - N/A   Overcast
12:15 PM 32.0 °F 18.4 °F 26.6 °F 80% 29.47 in 8.0 mi West 26.5 mph 31.1 mph N/A   Overcast
12:35 PM 33.8 °F 21.3 °F 28.4 °F 81% 29.47 in 9.0 mi West 24.2 mph 29.9 mph N/A   Overcast
12:55 PM 33.8 °F 21.9 °F 28.4 °F 81% 29.47 in 10.0 mi West 21.9 mph 28.8 mph N/A   Overcast
1:15 PM 35.6 °F 24.5 °F 28.4 °F 75% 29.46 in 10.0 mi West 20.7 mph 26.5 mph N/A   Overcast
1:35 PM 35.6 °F 24.8 °F 26.6 °F 70% 29.46 in 10.0 mi West 19.6 mph - N/A   Overcast
1:55 PM 35.6 °F 24.8 °F 28.4 °F 75% 29.46 in 10.0 mi West 19.6 mph 25.3 mph N/A   Overcast
2:15 PM 35.6 °F 23.4 °F 28.4 °F 75% 29.46 in 10.0 mi West 25.3 mph 28.8 mph N/A   Overcast
2:35 PM 35.6 °F 23.2 °F 28.4 °F 75% 29.46 in 10.0 mi West 26.5 mph 38.0 mph N/A   Overcast
2:55 PM 35.6 °F 24.8 °F 28.4 °F 75% 29.47 in 10.0 mi West 19.6 mph 28.8 mph N/A   Mostly Cloudy
3:15 PM 35.6 °F 25.2 °F 28.4 °F 75% 29.48 in 10.0 mi West 18.4 mph - N/A   Partly Cloudy
3:35 PM 35.6 °F 25.5 °F 28.4 °F 75% 29.49 in 10.0 mi West 17.3 mph - N/A   Partly Cloudy
3:55 PM 33.8 °F 23.5 °F 28.4 °F 81% 29.50 in 10.0 mi West 16.1 mph - N/A   Mostly Cloudy
4:15 PM 33.8 °F 24.8 °F 28.4 °F 81% 29.52 in 10.0 mi WNW 12.7 mph - N/A   Overcast
4:35 PM 33.8 °F 24.3 °F 28.4 °F 81% 29.52 in 10.0 mi West 13.8 mph - N/A   Mostly Cloudy
4:55 PM 33.8 °F 25.8 °F 28.4 °F 81% 29.53 in 10.0 mi West 10.4 mph - N/A   Mostly Cloudy
5:15 PM 33.8 °F 27.0 °F 26.6 °F 75% 29.53 in 10.0 mi West 8.1 mph - N/A   Scattered Clouds
5:35 PM 30.2 °F 20.8 °F 26.6 °F 86% 29.53 in 10.0 mi SW 11.5 mph - N/A   Clear
5:55 PM 32.0 °F 24.2 °F 28.4 °F 87% 29.52 in 10.0 mi SSW 9.2 mph - N/A   Clear
6:15 PM 32.0 °F 23.0 °F 26.6 °F 80% 29.52 in 10.0 mi SW 11.5 mph - N/A   Clear
6:35 PM 35.6 °F 25.9 °F 30.2 °F 81% 29.52 in 10.0 mi WSW 16.1 mph - N/A   Scattered Clouds
6:55 PM 35.6 °F 26.6 °F 30.2 °F 81% 29.51 in 10.0 mi WSW 13.8 mph - N/A   Mostly Cloudy
7:15 PM 37.4 °F 27.5 °F 30.2 °F 75% 29.50 in 10.0 mi SW 18.4 mph 23.0 mph N/A   Scattered Clouds
7:35 PM 37.4 °F 28.2 °F 30.2 °F 75% 29.48 in 10.0 mi SW 16.1 mph - N/A   Mostly Cloudy
7:55 PM 37.4 °F 27.5 °F 28.4 °F 70% 29.47 in 10.0 mi SW 18.4 mph - N/A   Partly Cloudy
8:15 PM 37.4 °F 26.9 °F 30.2 °F 75% 29.46 in 10.0 mi SW 20.7 mph - N/A   Clear
8:35 PM 39.2 °F 29.3 °F 30.2 °F 70% 29.45 in 10.0 mi SW 20.7 mph 27.6 mph N/A   Clear
8:55 PM 39.2 °F 28.5 °F 28.4 °F 65% 29.44 in 10.0 mi SW 24.2 mph 29.9 mph N/A   Mostly Cloudy
9:15 PM 39.2 °F 28.5 °F 28.4 °F 65% 29.44 in 10.0 mi SW 24.2 mph - N/A   Overcast
9:35 PM 39.2 °F 28.0 °F 30.2 °F 70% 29.49 in 10.0 mi West 26.5 mph 33.4 mph N/A   Mostly Cloudy
9:55 PM 32.0 °F 17.2 °F 26.6 °F 80% 29.54 in 3.0 mi NW 32.2 mph 48.3 mph N/A   Overcast
10:15 PM 28.4 °F 11.8 °F 24.8 °F 86% 29.59 in 8.0 mi WNW 34.5 mph 44.9 mph N/A   Overcast
10:35 PM 24.8 °F 7.6 °F 17.6 °F 74% 29.63 in 10.0 mi WNW 31.1 mph 50.6 mph N/A   Overcast
10:55 PM 23.0 °F 3.2 °F 15.8 °F 74% 29.66 in 2.5 mi WNW 40.3 mph 49.5 mph N/A   Overcast
11:15 PM 19.4 °F 0.2 °F 6.8 °F 58% 29.69 in 5.0 mi NW 31.1 mph 46.0 mph N/A   Overcast
11:35 PM 17.6 °F -1.3 °F 1.4 °F 49% 29.72 in 10.0 mi WNW 27.6 mph 41.4 mph N/A   Overcast
11:55 PM 17.6 °F -1.3 °F 3.2 °F 53% 29.71 in 7.0 mi WNW 27.6 mph 36.8 mph N/A   Overcast